"Pseudo-MPEC" for P10LpIV

Created 2019 Jan 15 15:18:29 UT using Find_Orb

Click here for an explanation of pseudo-MPECs

 
 Astrometry: 
     P10LpIV  C2019 01 11R#LXtSO.k?*5BJPg6e7(X42XRv5'MBYFAstrometryh7tuA)g`g\F51
     P10LpIV  C2019 01 110*(wc[sRbFOX%O!p#v7,=QN?hfLknx,Y(4redacted;VEI)x1O'DF51
     P10LpIV  C2019 01 11pt9!Hclick2i48[\6go?UKd%Tj]w4k-3Juc@oVAqhe+'FAqg7jB/F51
     P10LpIV ^C2019 01 13.64741010 09 44.986+50 53 14.62   ~1DKI 20.84GVNEOCP568
     P10LpIV ^C2019 01 13.64835810 09 44.502+50 53 14.82   ~1DKI 20.85GVNEOCP568
     P10LpIV ^C2019 01 13.64931910 09 44.003+50 53 15.09   ~1DKI 20.84GVNEOCP568
     P10LpIV pC2019 01 15TdnX_WR.3M%U8d6^`.KQxnm-orhere3-[jh5.\GH9yVL6[eTr#:ZL01
     P10LpIV KC2019 01 15l1-TlQB[_$(-q'dQTforT2s.^vIr%:+S%I?2#1cymH#u0N#t%1(kL01
     P10LpIV KC2019 01 15:TexplanationaafeRBl;A_x4NL7+*Q:t5O4kiBS+]sKLm0g5o_3L01

Station data:
(568) Mauna Kea  (N19.826116 W155.472200)  US/Hawaii.
(F51) Pan-STARRS 1, Haleakala  (N20.707235 W156.255910)  US/Hawaii.
   Observers N. Primak, A. Schultz, S. Watters, J. Thiel, T. Goggia. Measurer
   PS1 Science Consortium. 1.8-m Ritchey-Chrétien + CCD.
(L01) Višnjan Observatory, Tičan  (N45.290900 E13.749300)  Croatia.
   Observers K. Korlević, E. Pettarin. Measurer E. Pettarin. 1.0-m f/2.9
   reflector + CCD.

Orbital elements:  P10LpIV
   Perihelion 2019 May 5.172561 +/- 0.445 TT =  4:08:29 (JD 2458608.672561)
Epoch 2019 Jan 15.0 TT = JDT 2458498.5   Earth MOID: 0.0127   Ve: 0.0067
M 231.34900970 +/- 0.35             (J2000 ecliptic)          AutoNEOCP
n   1.16772260 +/- 0.00146          Peri.  313.89358 +/- 0.027
a   0.89311954 +/- 0.000743         Node   306.28577 +/- 0.0057
e   0.2196442 +/- 0.00362           Incl.   11.36193 +/- 0.22
P   0.84/308.29d           H 25.3   G  0.15   U  8.4  
q 0.69695100 +/- 0.00382    Q 1.08928807 +/- 0.00233
From 9 observations 2019 Jan. 11-15; mean residual 0".18
Residuals in arcseconds: 
190111 F51  .27+  .07+    190113 568  .03-  .01+    190115 L01  .40-  .04+    
190111 F51  .10-  .07-    190113 568  .03+  .04-    190115 L01  .11-  .15+    
190111 F51  .17-  .02+    190113 568  .01+  .02-    190115 L01  .50+  .17-    

Ephemerides (geocentric):
Date (UTC) HH   RA              Dec         delta   r     elong  mag " sig PA
---- -- -- --  -------------   -----------  ------ ------ -----  --- ---- ---
2019 01 15 15  09 52 25.612   +51 08 15.93  .06550 1.0356 141.4 21.0 2.64  85
2019 01 15 16  09 52 00.165   +51 08 28.93  .06532 1.0355 141.4 21.0 2.80  86
2019 01 15 17  09 51 34.563   +51 08 41.55  .06514 1.0354 141.5 21.0 2.97  86
2019 01 15 18  09 51 08.804   +51 08 53.79  .06496 1.0353 141.6 20.9 3.14  86
2019 01 15 19  09 50 42.888   +51 09 05.64  .06478 1.0352 141.6 20.9 3.31  87
2019 01 15 20  09 50 16.813   +51 09 17.10  .06460 1.0351 141.7 20.9 3.49  87
2019 01 15 21  09 49 50.578   +51 09 28.15  .06442 1.0350 141.8 20.9 3.68  87
2019 01 15 22  09 49 24.182   +51 09 38.80  .06425 1.0349 141.8 20.9 3.86  87
2019 01 15 23  09 48 57.625   +51 09 49.03  .06407 1.0348 141.9 20.9 4.06  87
2019 01 16 00  09 48 30.905   +51 09 58.84  .06389 1.0347 141.9 20.9 4.25  87
2019 01 16 01  09 48 04.021   +51 10 08.22  .06371 1.0346 142.0 20.9 4.45  87
2019 01 16 02  09 47 36.972   +51 10 17.16  .06353 1.0345 142.1 20.9 4.66  87
2019 01 16 03  09 47 09.757   +51 10 25.66  .06335 1.0344 142.1 20.9 4.87  87
2019 01 16 04  09 46 42.375   +51 10 33.71  .06317 1.0343 142.2 20.9 5.08  87
2019 01 16 05  09 46 14.825   +51 10 41.30  .06300 1.0342 142.3 20.9 5.30  88
2019 01 16 06  09 45 47.105   +51 10 48.42  .06282 1.0341 142.3 20.9 5.53  88
2019 01 16 07  09 45 19.215   +51 10 55.06  .06264 1.0340 142.4 20.8 5.76  88
2019 01 16 08  09 44 51.154   +51 11 01.23  .06246 1.0339 142.5 20.8 5.99  88
2019 01 16 09  09 44 22.920   +51 11 06.90  .06229 1.0338 142.5 20.8 6.23  88
2019 01 16 10  09 43 54.513   +51 11 12.07  .06211 1.0337 142.6 20.8 6.48  88
2019 01 16 11  09 43 25.930   +51 11 16.73  .06193 1.0336 142.7 20.8 6.73  88
2019 01 16 12  09 42 57.172   +51 11 20.88  .06175 1.0335 142.7 20.8 6.98  88
2019 01 16 13  09 42 28.237   +51 11 24.50  .06158 1.0334 142.8 20.8 7.25  88
2019 01 16 14  09 41 59.123   +51 11 27.58  .06140 1.0333 142.9 20.8 7.51  87
2019 01 16 15  09 41 29.830   +51 11 30.13  .06122 1.0332 142.9 20.8 7.78  87
2019 01 16 16  09 41 00.357   +51 11 32.12  .06105 1.0331 143.0 20.8 8.06  87
2019 01 16 17  09 40 30.702   +51 11 33.55  .06087 1.0330 143.1 20.8 8.34  87
2019 01 16 18  09 40 00.864   +51 11 34.41  .06070 1.0329 143.1 20.8 8.63  87
2019 01 16 19  09 39 30.843   +51 11 34.69  .06052 1.0328 143.2 20.7 8.93  87
2019 01 16 20  09 39 00.636   +51 11 34.38  .06034 1.0327 143.3 20.7 9.23  87
2019 01 16 21  09 38 30.243   +51 11 33.47  .06017 1.0326 143.4 20.7 9.53  87
2019 01 16 22  09 37 59.662   +51 11 31.95  .05999 1.0325 143.4 20.7 9.85  87
2019 01 16 23  09 37 28.893   +51 11 29.82  .05982 1.0324 143.5 20.7 10.2  87
2019 01 17 00  09 36 57.934   +51 11 27.05  .05964 1.0323 143.6 20.7 10.5  87
2019 01 17 01  09 36 26.784   +51 11 23.64  .05947 1.0322 143.6 20.7 10.8  87
2019 01 17 02  09 35 55.441   +51 11 19.59  .05929 1.0321 143.7 20.7 11.2  87
2019 01 17 03  09 35 23.905   +51 11 14.87  .05912 1.0320 143.8 20.7 11.5  87
2019 01 17 04  09 34 52.175   +51 11 09.48  .05894 1.0319 143.8 20.7 11.9  87
2019 01 17 05  09 34 20.248   +51 11 03.41  .05877 1.0318 143.9 20.7 12.2  87
2019 01 17 06  09 33 48.125   +51 10 56.65  .05859 1.0317 144.0 20.7 12.6  87
2019 01 17 07  09 33 15.803   +51 10 49.18  .05842 1.0316 144.0 20.7 12.9  86
2019 01 17 08  09 32 43.281   +51 10 40.99  .05824 1.0315 144.1 20.6 13.3  86
2019 01 17 09  09 32 10.559   +51 10 32.07  .05807 1.0314 144.2 20.6 13.7  86
2019 01 17 10  09 31 37.634   +51 10 22.42  .05790 1.0313 144.2 20.6 14.1  86
2019 01 17 11  09 31 04.507   +51 10 12.01  .05772 1.0312 144.3 20.6 14.5  86
2019 01 17 12  09 30 31.174   +51 10 00.84  .05755 1.0311 144.4 20.6 14.9  86
2019 01 17 13  09 29 57.636   +51 09 48.89  .05738 1.0310 144.5 20.6 15.3  86
2019 01 17 14  09 29 23.891   +51 09 36.15  .05720 1.0308 144.5 20.6 15.7  86